{"data":{"norad_id":57468,"epoch":"2026-05-25T01:20:17.151648Z","epoch_age_seconds":66243,"freshness":"FRESH","line1":"1 57468U 23107M   26145.05575407  .00001264  00000+0  55438-4 0  9995","line2":"2 57468  42.9976 265.0606 0000502  50.3947 309.6948 15.27582269156827","mean_motion":15.27582269,"eccentricity":5.02e-5,"inclination_deg":42.9976,"raan_deg":265.0606,"arg_perigee_deg":50.3947,"mean_anomaly_deg":309.6948,"bstar":5.5438e-5,"rev_number":15682,"period_min":94.266608694186,"perigee_km":482.69787064484,"apogee_km":483.38673304675,"semimajor_km":6861.1793018458,"source":"CELESTRAK","updated_at":"2026-05-25T13:38:18.324983Z"}}